| time (UTC) | temp F | wind direction | speed MPH | gust MPH | rain 1hr in | rain 24hr in | rain mn in | humidity % | barometer mb |
| 20260503003700 | 82 | 111 | 0.0 | 1.0 | 0.00 | 0.00 | 0.00 | 77 | 1015.2 |
| 20260503003156 | 82 | 111 | 0.0 | 0.0 | 0.00 | 0.00 | 0.00 | 76 | 1015.2 |
| 20260503002653 | 82 | 111 | 0.0 | 0.0 | 0.00 | 0.00 | 0.00 | 76 | 1015.1 |
| 20260503002150 | 82 | 116 | 0.0 | 1.0 | 0.00 | 0.00 | 0.00 | 76 | 1015.0 |
| 20260503001646 | 82 | 173 | 2.0 | 2.0 | 0.00 | 0.00 | 0.00 | 76 | 1014.9 |
| 20260503001143 | 82 | 122 | 1.0 | 1.0 | 0.00 | 0.00 | 0.00 | 76 | 1014.9 |
| 20260503000641 | 82 | 132 | 2.0 | 2.0 | 0.00 | 0.00 | 0.00 | 76 | 1014.8 |
| 20260503000138 | 82 | 131 | 1.0 | 1.0 | 0.00 | 0.00 | 0.00 | 75 | 1014.9 |
| 20260502235634 | 83 | 131 | 0.0 | 1.0 | 0.00 | 0.00 | 0.00 | 75 | 1014.9 |
| 20260502235133 | 83 | 119 | 0.0 | 0.0 | 0.00 | 0.00 | 0.00 | 75 | 1014.5 |
| 20260502234628 | 83 | 129 | 1.0 | 1.0 | 0.00 | 0.00 | 0.00 | 74 | 1014.7 |
| 20260502234126 | 84 | 150 | 1.0 | 1.0 | 0.00 | 0.00 | 0.00 | 73 | 1014.6 |
| 20260502233621 | 84 | 103 | 0.0 | 0.0 | 0.00 | 0.00 | 0.00 | 73 | 1014.6 |
| 20260502233118 | 85 | 95 | 0.0 | 0.0 | 0.00 | 0.00 | 0.00 | 73 | 1014.5 |
| 20260502232614 | 85 | 110 | 1.0 | 1.0 | 0.00 | 0.00 | 0.00 | 72 | 1014.6 |
| 20260502232112 | 85 | 130 | 0.0 | 0.0 | 0.00 | 0.00 | 0.00 | 72 | 1014.4 |
| 20260502231608 | 85 | 105 | 0.0 | 0.0 | 0.00 | 0.00 | 0.00 | 72 | 1014.3 |
| 20260502231106 | 85 | 186 | 1.0 | 2.0 | 0.00 | 0.00 | 0.00 | 73 | 1014.3 |
| 20260502230604 | 85 | 117 | 1.0 | 1.0 | 0.00 | 0.00 | 0.00 | 72 | 1014.3 |
| 20260502225558 | 86 | 151 | 2.0 | 2.0 | 0.00 | 0.00 | 0.00 | 69 | 1014.1 |
| 20260502225055 | 86 | 130 | 2.0 | 3.0 | 0.00 | 0.00 | 0.00 | 70 | 1014.0 |
| 20260502224551 | 86 | 121 | 2.0 | 2.0 | 0.00 | 0.00 | 0.00 | 71 | 1013.9 |
| 20260502224048 | 85 | 170 | 2.0 | 2.0 | 0.00 | 0.00 | 0.00 | 71 | 1013.9 |
| 20260502223546 | 86 | 171 | 1.0 | 3.0 | 0.00 | 0.00 | 0.00 | 72 | 1013.7 |
| 20260502223044 | 86 | 210 | 2.0 | 6.0 | 0.00 | 0.00 | 0.00 | 70 | 1014.0 |
| 20260502222541 | 86 | 89 | 0.0 | 0.0 | 0.00 | 0.00 | 0.00 | 70 | 1013.8 |
| 20260502222037 | 87 | 108 | 1.0 | 1.0 | 0.00 | 0.00 | 0.00 | 68 | 1013.8 |
| 20260502221533 | 88 | 178 | 3.0 | 3.0 | 0.00 | 0.00 | 0.00 | 68 | 1013.9 |
| 20260502221031 | 87 | 81 | 0.0 | 1.0 | 0.00 | 0.00 | 0.00 | 69 | 1013.8 |
| 20260502220526 | 87 | 128 | 1.0 | 1.0 | 0.00 | 0.00 | 0.00 | 69 | 1013.7 |
| 20260502220023 | 87 | 164 | 2.0 | 2.0 | 0.00 | 0.00 | 0.00 | 68 | 1013.6 |
| 20260502215520 | 87 | 188 | 2.0 | 3.0 | 0.00 | 0.00 | 0.00 | 68 | 1013.8 |
| 20260502215017 | 87 | 68 | 0.0 | 1.0 | 0.00 | 0.00 | 0.00 | 69 | 1013.8 |
| 20260502214514 | 87 | 254 | 1.0 | 2.0 | 0.00 | 0.00 | 0.00 | 70 | 1013.8 |
| 20260502214012 | 87 | 121 | 3.0 | 3.0 | 0.00 | 0.00 | 0.00 | 68 | 1013.7 |
| 20260502213508 | 87 | 245 | 2.0 | 2.0 | 0.00 | 0.00 | 0.00 | 69 | 1013.7 |
| 20260502213007 | 87 | 144 | 2.0 | 2.0 | 0.00 | 0.00 | 0.00 | 70 | 1013.7 |
| 20260502212505 | 86 | 142 | 3.0 | 3.0 | 0.00 | 0.00 | 0.00 | 70 | 1013.7 |
| 20260502212002 | 86 | 168 | 3.0 | 3.0 | 0.00 | 0.00 | 0.00 | 71 | 1013.6 |
| 20260502211457 | 86 | 173 | 4.0 | 5.0 | 0.00 | 0.00 | 0.00 | 71 | 1013.6 |
| 20260502210955 | 85 | 189 | 2.0 | 2.0 | 0.00 | 0.00 | 0.00 | 72 | 1013.3 |
| 20260502210451 | 85 | 167 | 5.0 | 6.0 | 0.00 | 0.00 | 0.00 | 71 | 1013.1 |
| 20260502205949 | 86 | 127 | 4.0 | 6.0 | 0.00 | 0.00 | 0.00 | 71 | 1013.1 |
| 20260502205445 | 86 | 146 | 5.0 | 6.0 | 0.00 | 0.00 | 0.00 | 71 | 1013.1 |
| 20260502204942 | 86 | 200 | 3.0 | 3.0 | 0.00 | 0.00 | 0.00 | 71 | 1013.2 |
| 20260502204439 | 86 | 216 | 4.0 | 6.0 | 0.00 | 0.00 | 0.00 | 70 | 1013.2 |
| 20260502203937 | 87 | 255 | 4.0 | 6.0 | 0.00 | 0.00 | 0.00 | 70 | 1013.5 |
| 20260502203434 | 87 | 173 | 2.0 | 3.0 | 0.00 | 0.00 | 0.00 | 70 | 1013.6 |
| 20260502202930 | 87 | 113 | 2.0 | 2.0 | 0.00 | 0.00 | 0.00 | 71 | 1013.9 |
| 20260502202427 | 87 | 209 | 4.0 | 5.0 | 0.00 | 0.00 | 0.00 | 70 | 1013.6 |
| 20260502201925 | 87 | 111 | 2.0 | 3.0 | 0.00 | 0.00 | 0.00 | 71 | 1013.7 |
| 20260502201421 | 87 | 232 | 2.0 | 3.0 | 0.00 | 0.00 | 0.00 | 71 | 1013.9 |
| 20260502200918 | 87 | 179 | 2.0 | 3.0 | 0.00 | 0.00 | 0.00 | 70 | 1014.1 |
| 20260502200413 | 87 | 124 | 2.0 | 2.0 | 0.00 | 0.00 | 0.00 | 70 | 1013.9 |
| 20260502195912 | 87 | 113 | 1.0 | 1.0 | 0.00 | 0.00 | 0.00 | 71 | 1014.1 |
| 20260502195408 | 87 | 183 | 3.0 | 5.0 | 0.00 | 0.00 | 0.00 | 70 | 1014.2 |
| 20260502194905 | 87 | 180 | 2.0 | 2.0 | 0.00 | 0.00 | 0.00 | 70 | 1014.2 |
| 20260502194402 | 87 | 220 | 2.0 | 3.0 | 0.00 | 0.00 | 0.00 | 71 | 1014.2 |
| 20260502193857 | 86 | 141 | 1.0 | 1.0 | 0.00 | 0.00 | 0.00 | 72 | 1014.0 |
| 20260502193355 | 86 | 156 | 2.0 | 3.0 | 0.00 | 0.00 | 0.00 | 73 | 1014.3 |
| 20260502192850 | 87 | 216 | 5.0 | 6.0 | 0.00 | 0.00 | 0.00 | 72 | 1014.4 |
| 20260502192347 | 86 | 343 | 2.0 | 2.0 | 0.00 | 0.00 | 0.00 | 71 | 1014.4 |
| 20260502191844 | 88 | 232 | 3.0 | 3.0 | 0.00 | 0.00 | 0.00 | 70 | 1014.6 |
| 20260502191343 | 87 | 129 | 3.0 | 5.0 | 0.00 | 0.00 | 0.00 | 73 | 1014.7 |
| 20260502190839 | 86 | 205 | 3.0 | 5.0 | 0.00 | 0.00 | 0.00 | 74 | 1014.9 |
| 20260502190337 | 85 | 188 | 3.0 | 6.0 | 0.00 | 0.00 | 0.00 | 76 | 1014.7 |
| 20260502185832 | 85 | 267 | 6.0 | 7.0 | 0.00 | 0.00 | 0.00 | 74 | 1015.0 |
| 20260502185328 | 86 | 165 | 4.0 | 6.0 | 0.00 | 0.00 | 0.00 | 73 | 1014.7 |
| 20260502184826 | 86 | 195 | 3.0 | 5.0 | 0.00 | 0.00 | 0.00 | 74 | 1014.6 |
| 20260502184321 | 86 | 163 | 1.0 | 1.0 | 0.00 | 0.00 | 0.00 | 73 | 1014.9 |
| 20260502183818 | 86 | 74 | 3.0 | 5.0 | 0.00 | 0.00 | 0.00 | 74 | 1014.7 |
| 20260502183314 | 86 | 166 | 4.0 | 6.0 | 0.00 | 0.00 | 0.00 | 74 | 1014.8 |
| 20260502182809 | 86 | 214 | 6.0 | 7.0 | 0.00 | 0.00 | 0.00 | 73 | 1015.0 |
| 20260502182305 | 86 | 144 | 2.0 | 3.0 | 0.00 | 0.00 | 0.00 | 75 | 1014.9 |
| 20260502181802 | 86 | 211 | 5.0 | 7.0 | 0.00 | 0.00 | 0.00 | 74 | 1014.9 |
| 20260502181301 | 86 | 188 | 4.0 | 6.0 | 0.00 | 0.00 | 0.00 | 74 | 1014.8 |
| 20260502180758 | 85 | 177 | 2.0 | 3.0 | 0.00 | 0.00 | 0.00 | 75 | 1014.9 |
| 20260502180255 | 85 | 180 | 4.0 | 6.0 | 0.00 | 0.00 | 0.00 | 75 | 1014.8 |
| 20260502170214 | 85 | 173 | 3.0 | 5.0 | 0.00 | 0.00 | 0.00 | 77 | 1015.0 |
| 20260502164201 | 84 | 181 | 7.0 | 8.0 | 0.00 | 0.00 | 0.00 | 76 | 1015.2 |
| 20260502163656 | 85 | 156 | 5.0 | 7.0 | 0.00 | 0.00 | 0.00 | 76 | 1015.1 |
| 20260502163153 | 85 | 198 | 5.0 | 7.0 | 0.00 | 0.00 | 0.00 | 76 | 1015.2 |
| 20260502162650 | 85 | 129 | 5.0 | 8.0 | 0.00 | 0.00 | 0.00 | 76 | 1015.2 |
| 20260502162147 | 84 | 246 | 8.0 | 10.0 | 0.00 | 0.00 | 0.00 | 76 | 1015.5 |
| 20260502161644 | 85 | 207 | 4.0 | 7.0 | 0.00 | 0.00 | 0.00 | 76 | 1015.4 |
| 20260502161141 | 85 | 182 | 5.0 | 6.0 | 0.00 | 0.00 | 0.00 | 75 | 1015.4 |
| 20260502160639 | 85 | 89 | 6.0 | 7.0 | 0.00 | 0.00 | 0.00 | 75 | 1015.0 |
| 20260502160138 | 85 | 145 | 4.0 | 5.0 | 0.00 | 0.00 | 0.00 | 76 | 1015.2 |
| 20260502152051 | 85 | 189 | 6.0 | 8.0 | 0.00 | 0.00 | 0.00 | 76 | 1015.1 |
| 20260502151549 | 85 | 191 | 7.0 | 8.0 | 0.00 | 0.00 | 0.00 | 75 | 1015.0 |
| 20260502151046 | 84 | 156 | 3.0 | 6.0 | 0.00 | 0.00 | 0.00 | 77 | 1015.1 |
| 20260502150543 | 84 | 117 | 4.0 | 7.0 | 0.00 | 0.00 | 0.00 | 76 | 1015.3 |
| 20260502130428 | 83 | 210 | 5.0 | 8.0 | 0.00 | 0.00 | 0.00 | 78 | 1014.6 |
| 20260502123411 | 82 | 210 | 6.0 | 8.0 | 0.00 | 0.00 | 0.00 | 80 | 1014.4 |
| 20260502122908 | 82 | 207 | 9.0 | 10.0 | 0.00 | 0.00 | 0.00 | 80 | 1014.2 |
| 20260502122404 | 82 | 133 | 4.0 | 7.0 | 0.00 | 0.00 | 0.00 | 80 | 1014.5 |
| 20260502121903 | 82 | 202 | 6.0 | 8.0 | 0.00 | 0.00 | 0.00 | 80 | 1014.3 |
| 20260502121359 | 82 | 221 | 8.0 | 10.0 | 0.00 | 0.00 | 0.00 | 80 | 1014.2 |
| 20260502120857 | 82 | 230 | 6.0 | 7.0 | 0.00 | 0.00 | 0.00 | 80 | 1014.5 |
| 20260502120353 | 82 | 207 | 5.0 | 6.0 | 0.00 | 0.00 | 0.00 | 81 | 1014.3 |
| 20260502115850 | 81 | 155 | 6.0 | 10.0 | 0.00 | 0.00 | 0.00 | 81 | 1014.5 |
| 20260502115347 | 82 | 191 | 6.0 | 7.0 | 0.00 | 0.00 | 0.00 | 81 | 1014.4 |
| 20260502114843 | 81 | 287 | 5.0 | 7.0 | 0.00 | 0.00 | 0.00 | 81 | 1014.3 |
| 20260502114340 | 81 | 174 | 3.0 | 5.0 | 0.00 | 0.00 | 0.00 | 82 | 1014.4 |
| 20260502113837 | 81 | 158 | 8.0 | 9.0 | 0.00 | 0.00 | 0.00 | 82 | 1014.2 |
| 20260502113335 | 81 | 168 | 5.0 | 7.0 | 0.00 | 0.00 | 0.00 | 82 | 1014.3 |
| 20260502112833 | 80 | 148 | 8.0 | 9.0 | 0.00 | 0.00 | 0.00 | 82 | 1014.2 |
| 20260502112330 | 80 | 180 | 6.0 | 10.0 | 0.00 | 0.00 | 0.00 | 82 | 1014.4 |
| 20260502111828 | 80 | 161 | 6.0 | 7.0 | 0.00 | 0.00 | 0.00 | 82 | 1014.2 |
| 20260502111325 | 80 | 194 | 7.0 | 10.0 | 0.00 | 0.00 | 0.00 | 82 | 1014.2 |
| 20260502110823 | 80 | 171 | 5.0 | 9.0 | 0.00 | 0.00 | 0.00 | 82 | 1014.2 |
| 20260502110320 | 80 | 159 | 3.0 | 5.0 | 0.00 | 0.00 | 0.00 | 82 | 1014.1 |
| 20260502105818 | 80 | 149 | 4.0 | 6.0 | 0.00 | 0.00 | 0.00 | 82 | 1014.2 |
| 20260502105314 | 80 | 145 | 9.0 | 10.0 | 0.00 | 0.00 | 0.00 | 82 | 1014.1 |
| 20260502104812 | 80 | 200 | 6.0 | 10.0 | 0.00 | 0.00 | 0.00 | 83 | 1014.0 |
| 20260502104309 | 80 | 179 | 8.0 | 11.0 | 0.00 | 0.00 | 0.00 | 83 | 1014.1 |
| 20260502103806 | 80 | 151 | 4.0 | 5.0 | 0.00 | 0.00 | 0.00 | 85 | 1013.9 |
| 20260502103304 | 80 | 147 | 3.0 | 5.0 | 0.00 | 0.00 | 0.00 | 85 | 1014.0 |
| 20260502102801 | 81 | 107 | 7.0 | 11.0 | 0.00 | 0.00 | 0.00 | 85 | 1013.8 |
| 20260502102257 | 81 | 139 | 7.0 | 9.0 | 0.00 | 0.00 | 0.00 | 85 | 1013.9 |
| 20260502101755 | 81 | 120 | 4.0 | 5.0 | 0.00 | 0.00 | 0.00 | 85 | 1013.9 |
| 20260502101253 | 81 | 172 | 5.0 | 8.0 | 0.00 | 0.00 | 0.00 | 84 | 1013.9 |
| 20260502100751 | 81 | 126 | 5.0 | 6.0 | 0.00 | 0.00 | 0.00 | 84 | 1013.8 |
| 20260502100249 | 81 | 150 | 5.0 | 8.0 | 0.00 | 0.00 | 0.00 | 83 | 1013.8 |
| 20260502091224 | 81 | 136 | 6.0 | 8.0 | 0.00 | 0.00 | 0.00 | 79 | 1013.9 |
| 20260502090721 | 81 | 156 | 9.0 | 11.0 | 0.00 | 0.00 | 0.00 | 79 | 1013.9 |
| 20260502090218 | 81 | 160 | 9.0 | 11.0 | 0.00 | 0.00 | 0.00 | 79 | 1013.8 |
| 20260502071113 | 81 | 135 | 4.0 | 5.0 | 0.00 | 0.00 | 0.00 | 81 | 1014.0 |
| 20260502070611 | 81 | 160 | 8.0 | 10.0 | 0.00 | 0.00 | 0.00 | 81 | 1014.0 |
| 20260502070109 | 81 | 134 | 6.0 | 8.0 | 0.00 | 0.00 | 0.00 | 81 | 1014.1 |
| 20260502065607 | 81 | 181 | 4.0 | 8.0 | 0.00 | 0.00 | 0.00 | 82 | 1013.9 |
| 20260502065104 | 81 | 138 | 5.0 | 7.0 | 0.00 | 0.00 | 0.00 | 82 | 1014.3 |
| 20260502064603 | 81 | 156 | 6.0 | 10.0 | 0.00 | 0.00 | 0.00 | 82 | 1014.2 |
| 20260502064100 | 81 | 140 | 9.0 | 10.0 | 0.00 | 0.00 | 0.00 | 82 | 1013.9 |
| 20260502063557 | 81 | 196 | 5.0 | 7.0 | 0.00 | 0.00 | 0.00 | 82 | 1014.0 |
| 20260502063055 | 81 | 139 | 6.0 | 8.0 | 0.00 | 0.00 | 0.00 | 82 | 1014.0 |
| 20260502062552 | 81 | 189 | 1.0 | 3.0 | 0.00 | 0.00 | 0.00 | 82 | 1013.9 |
| 20260502062050 | 81 | 116 | 5.0 | 8.0 | 0.00 | 0.00 | 0.00 | 81 | 1014.1 |
| 20260502061547 | 81 | 221 | 7.0 | 7.0 | 0.00 | 0.00 | 0.00 | 82 | 1014.0 |
| 20260502061044 | 81 | 155 | 6.0 | 8.0 | 0.00 | 0.00 | 0.00 | 81 | 1013.9 |
| 20260502060539 | 81 | 205 | 5.0 | 8.0 | 0.00 | 0.00 | 0.00 | 81 | 1014.0 |
| 20260502060037 | 81 | 183 | 3.0 | 5.0 | 0.00 | 0.00 | 0.00 | 81 | 1014.2 |
| 20260502055534 | 81 | 189 | 7.0 | 10.0 | 0.00 | 0.00 | 0.00 | 81 | 1014.1 |
| 20260502055033 | 81 | 128 | 9.0 | 10.0 | 0.00 | 0.00 | 0.00 | 81 | 1014.1 |
| 20260502054531 | 81 | 132 | 10.0 | 14.0 | 0.00 | 0.00 | 0.00 | 80 | 1014.2 |
| 20260502054027 | 81 | 158 | 5.0 | 7.0 | 0.00 | 0.00 | 0.00 | 80 | 1014.3 |
| 20260502053524 | 81 | 138 | 4.0 | 7.0 | 0.00 | 0.00 | 0.00 | 80 | 1014.2 |
| 20260502053022 | 81 | 142 | 5.0 | 7.0 | 0.00 | 0.00 | 0.00 | 81 | 1014.5 |
| 20260502052521 | 81 | 123 | 3.0 | 6.0 | 0.00 | 0.00 | 0.00 | 81 | 1014.6 |
| 20260502052018 | 81 | 128 | 5.0 | 6.0 | 0.00 | 0.00 | 0.00 | 82 | 1014.4 |
| 20260502051516 | 81 | 164 | 5.0 | 8.0 | 0.00 | 0.00 | 0.00 | 81 | 1014.5 |
| 20260502051014 | 81 | 156 | 9.0 | 10.0 | 0.00 | 0.00 | 0.00 | 81 | 1014.7 |
| 20260502050510 | 81 | 130 | 7.0 | 9.0 | 0.00 | 0.00 | 0.00 | 80 | 1014.7 |
| 20260502050007 | 81 | 151 | 7.0 | 8.0 | 0.00 | 0.00 | 0.00 | 80 | 1014.8 |
| 20260502045503 | 81 | 133 | 3.0 | 3.0 | 0.00 | 0.00 | 0.00 | 80 | 1014.9 |
| 20260502045001 | 81 | 140 | 3.0 | 3.0 | 0.00 | 0.00 | 0.00 | 80 | 1014.9 |
| 20260502044456 | 81 | 148 | 5.0 | 6.0 | 0.00 | 0.00 | 0.00 | 80 | 1014.8 |
| 20260502043953 | 81 | 132 | 6.0 | 7.0 | 0.00 | 0.00 | 0.00 | 80 | 1014.7 |
| 20260502043451 | 81 | 167 | 3.0 | 5.0 | 0.00 | 0.00 | 0.00 | 81 | 1014.9 |
| 20260502042950 | 81 | 119 | 5.0 | 8.0 | 0.00 | 0.00 | 0.00 | 81 | 1015.1 |
| 20260502042447 | 81 | 145 | 4.0 | 5.0 | 0.00 | 0.00 | 0.00 | 82 | 1015.1 |
| 20260502041945 | 81 | 116 | 5.0 | 8.0 | 0.00 | 0.00 | 0.00 | 83 | 1014.9 |
| 20260502041443 | 81 | 108 | 2.0 | 2.0 | 0.00 | 0.00 | 0.00 | 83 | 1014.9 |
| 20260502040939 | 81 | 109 | 2.0 | 2.0 | 0.00 | 0.00 | 0.00 | 82 | 1015.0 |
| 20260502040436 | 81 | 163 | 5.0 | 6.0 | 0.00 | 0.00 | 0.00 | 82 | 1015.1 |
| 20260502035932 | 81 | 166 | 3.0 | 3.0 | 0.00 | 0.00 | 0.00 | 82 | 1015.1 |
| 20260502035428 | 81 | 138 | 5.0 | 7.0 | 0.00 | 0.00 | 0.00 | 82 | 1015.1 |
| 20260502034926 | 81 | 143 | 4.0 | 6.0 | 0.00 | 0.00 | 0.00 | 81 | 1014.9 |
| 20260502034425 | 81 | 119 | 7.0 | 8.0 | 0.00 | 0.00 | 0.00 | 81 | 1014.9 |
| 20260502033923 | 81 | 132 | 5.0 | 6.0 | 0.00 | 0.00 | 0.00 | 81 | 1014.8 |
| 20260502033420 | 81 | 107 | 3.0 | 3.0 | 0.00 | 0.00 | 0.00 | 81 | 1014.8 |
| 20260502032917 | 81 | 105 | 2.0 | 3.0 | 0.00 | 0.00 | 0.00 | 80 | 1014.8 |
| 20260502032413 | 81 | 125 | 4.0 | 5.0 | 0.00 | 0.00 | 0.00 | 79 | 1014.7 |
| 20260502031910 | 81 | 122 | 5.0 | 8.0 | 0.00 | 0.00 | 0.00 | 78 | 1014.9 |
| 20260502031409 | 81 | 105 | 3.0 | 3.0 | 0.00 | 0.00 | 0.00 | 78 | 1014.9 |
| 20260502030907 | 81 | 125 | 1.0 | 1.0 | 0.00 | 0.00 | 0.00 | 78 | 1014.7 |
| 20260502030404 | 81 | 83 | 8.0 | 9.0 | 0.00 | 0.00 | 0.00 | 78 | 1014.7 |
| 20260502025903 | 81 | 95 | 3.0 | 3.0 | 0.00 | 0.00 | 0.00 | 78 | 1014.9 |
| 20260502025359 | 81 | 153 | 4.0 | 5.0 | 0.00 | 0.00 | 0.00 | 77 | 1014.7 |
| 20260502024857 | 81 | 128 | 4.0 | 6.0 | 0.00 | 0.00 | 0.00 | 77 | 1014.9 |
| 20260502024355 | 81 | 112 | 3.0 | 3.0 | 0.00 | 0.00 | 0.00 | 77 | 1014.7 |
| 20260502023852 | 81 | 121 | 3.0 | 5.0 | 0.00 | 0.00 | 0.00 | 77 | 1014.7 |
| 20260502023350 | 81 | 144 | 5.0 | 7.0 | 0.00 | 0.00 | 0.00 | 77 | 1014.6 |
| 20260502022848 | 81 | 160 | 5.0 | 6.0 | 0.00 | 0.00 | 0.00 | 76 | 1014.9 |
| 20260502022343 | 81 | 131 | 2.0 | 3.0 | 0.00 | 0.00 | 0.00 | 77 | 1014.6 |
| 20260502021840 | 81 | 129 | 6.0 | 7.0 | 0.00 | 0.00 | 0.00 | 76 | 1014.8 |
| 20260502021338 | 81 | 128 | 3.0 | 3.0 | 0.00 | 0.00 | 0.00 | 75 | 1014.8 |
| 20260502020835 | 81 | 96 | 1.0 | 2.0 | 0.00 | 0.00 | 0.00 | 75 | 1014.5 |
| 20260502020333 | 81 | 105 | 6.0 | 7.0 | 0.00 | 0.00 | 0.00 | 75 | 1014.4 |
| 20260502015829 | 81 | 137 | 5.0 | 7.0 | 0.00 | 0.00 | 0.00 | 75 | 1014.3 |
| 20260502015326 | 81 | 117 | 5.0 | 8.0 | 0.00 | 0.00 | 0.00 | 76 | 1014.2 |
| 20260502014824 | 81 | 80 | 4.0 | 6.0 | 0.00 | 0.00 | 0.00 | 76 | 1014.3 |
| 20260502014321 | 81 | 115 | 3.0 | 3.0 | 0.00 | 0.00 | 0.00 | 75 | 1014.2 |
| 20260502013817 | 81 | 98 | 3.0 | 3.0 | 0.00 | 0.00 | 0.00 | 75 | 1014.2 |
| 20260502013313 | 81 | 104 | 5.0 | 7.0 | 0.00 | 0.00 | 0.00 | 75 | 1014.2 |
| 20260502012809 | 81 | 116 | 5.0 | 6.0 | 0.00 | 0.00 | 0.00 | 75 | 1013.9 |
| 20260502012307 | 81 | 107 | 5.0 | 5.0 | 0.00 | 0.00 | 0.00 | 75 | 1014.0 |
| 20260502011804 | 81 | 110 | 3.0 | 5.0 | 0.00 | 0.00 | 0.00 | 75 | 1013.9 |
| 20260502011300 | 81 | 96 | 2.0 | 3.0 | 0.00 | 0.00 | 0.00 | 75 | 1013.9 |
| 20260502010758 | 81 | 139 | 7.0 | 9.0 | 0.00 | 0.00 | 0.00 | 74 | 1014.0 |
| 20260502010254 | 81 | 108 | 4.0 | 5.0 | 0.00 | 0.00 | 0.00 | 74 | 1013.7 |
| 20260502005751 | 81 | 106 | 5.0 | 7.0 | 0.00 | 0.00 | 0.00 | 74 | 1013.9 |
| 20260502005249 | 81 | 123 | 3.0 | 3.0 | 0.00 | 0.00 | 0.00 | 74 | 1013.5 |
| 20260502004745 | 81 | 92 | 2.0 | 2.0 | 0.00 | 0.00 | 0.00 | 74 | 1013.6 |
| 20260502004242 | 81 | 89 | 3.0 | 3.0 | 0.00 | 0.00 | 0.00 | 74 | 1013.6 |